Time,TemperatureF,DewpointF,PressureIn,WindDirection,WindDirectionDegrees,WindSpeedMPH,WindSpeedGustMPH,Humidity,HourlyPrecipIn,Conditions,Clouds,dailyrainin,SolarRadiationWatts/m^2,SoftwareType,DateUTC
2013-03-17 00:02:00,65.0,9.0,29.92,NW,304,11.0,17.0,10,-99.99,,,-99.99,0.000000,,2013-03-17 06:02:00,
2013-03-17 00:12:00,65.0,10.0,29.92,WNW,299,11.0,17.0,11,-99.99,,,-99.99,0.000000,,2013-03-17 06:12:00,
2013-03-17 00:22:00,65.0,10.0,29.92,WNW,299,11.0,17.0,11,-99.99,,,-99.99,0.000000,,2013-03-17 06:22:00,
2013-03-17 00:32:00,64.0,10.0,29.92,WNW,296,12.0,18.0,11,-99.99,,,-99.99,0.000000,,2013-03-17 06:32:00,
2013-03-17 00:42:00,64.0,10.0,29.92,WNW,294,13.0,19.0,11,-99.99,,,-99.99,0.000000,,2013-03-17 06:42:00,
2013-03-17 00:52:00,64.0,10.0,29.92,WNW,294,13.0,19.0,11,-99.99,,,-99.99,0.000000,,2013-03-17 06:52:00,
2013-03-17 01:02:00,64.0,10.0,29.92,WNW,287,16.0,22.0,11,-99.99,,,-99.99,0.000000,,2013-03-17 07:02:00,
2013-03-17 01:12:00,63.0,10.0,29.92,WNW,293,14.0,25.0,12,-99.99,,,-99.99,0.000000,,2013-03-17 07:12:00,
2013-03-17 01:22:00,63.0,10.0,29.92,WNW,293,14.0,25.0,12,-99.99,,,-99.99,0.000000,,2013-03-17 07:22:00,
2013-03-17 01:32:00,63.0,10.0,29.92,WNW,296,14.0,22.0,12,-99.99,,,-99.99,0.000000,,2013-03-17 07:32:00,
2013-03-17 01:42:00,63.0,11.0,29.92,WNW,292,15.0,25.0,12,-99.99,,,-99.99,0.000000,,2013-03-17 07:42:00,
2013-03-17 01:52:00,63.0,11.0,29.92,WNW,292,15.0,25.0,12,-99.99,,,-99.99,0.000000,,2013-03-17 07:52:00,
2013-03-17 02:02:00,63.0,11.0,29.92,WNW,290,17.0,23.0,12,-99.99,,,-99.99,0.000000,,2013-03-17 08:02:00,
2013-03-17 02:13:00,63.0,11.0,29.92,WNW,291,14.0,22.0,13,-99.99,,,-99.99,0.000000,,2013-03-17 08:13:00,
2013-03-17 02:22:00,63.0,11.0,29.92,WNW,291,14.0,22.0,13,-99.99,,,-99.99,0.000000,,2013-03-17 08:22:00,
2013-03-17 02:32:00,63.0,11.0,29.92,WNW,291,14.0,22.0,13,-99.99,,,-99.99,0.000000,,2013-03-17 08:32:00,
2013-03-17 02:42:00,63.0,12.0,29.92,WNW,300,15.0,22.0,13,-99.99,,,-99.99,0.000000,,2013-03-17 08:42:00,
2013-03-17 02:52:00,63.0,12.0,29.92,WNW,300,15.0,22.0,13,-99.99,,,-99.99,0.000000,,2013-03-17 08:52:00,
2013-03-17 03:03:00,62.0,11.0,29.92,WNW,290,15.0,23.0,13,-99.99,,,-99.99,0.000000,,2013-03-17 09:03:00,
2013-03-17 03:12:00,61.0,12.0,29.93,WNW,296,13.0,20.0,13,-99.99,,,-99.99,0.000000,,2013-03-17 09:12:00,
2013-03-17 03:22:00,61.0,12.0,29.93,WNW,296,13.0,20.0,13,-99.99,,,-99.99,0.000000,,2013-03-17 09:22:00,
2013-03-17 03:32:00,62.0,12.0,29.92,WNW,299,13.0,22.0,13,-99.99,,,-99.99,0.000000,,2013-03-17 09:32:00,
2013-03-17 03:43:00,62.0,12.0,29.92,WNW,302,13.0,19.0,13,-99.99,,,-99.99,0.000000,,2013-03-17 09:43:00,
2013-03-17 03:53:00,62.0,12.0,29.92,WNW,302,13.0,19.0,13,-99.99,,,-99.99,0.000000,,2013-03-17 09:53:00,
2013-03-17 04:03:00,62.0,12.0,29.92,WNW,302,13.0,19.0,13,-99.99,,,-99.99,0.000000,,2013-03-17 10:03:00,
2013-03-17 04:13:00,61.0,12.0,29.92,NW,313,16.0,24.0,14,-99.99,,,-99.99,0.000000,,2013-03-17 10:13:00,
2013-03-17 04:23:00,61.0,12.0,29.92,NW,313,16.0,24.0,14,-99.99,,,-99.99,0.000000,,2013-03-17 10:23:00,
2013-03-17 04:33:00,61.0,12.0,29.92,NW,313,16.0,24.0,14,-99.99,,,-99.99,0.000000,,2013-03-17 10:33:00,
2013-03-17 04:42:00,61.0,12.0,29.92,NW,313,16.0,24.0,14,-99.99,,,-99.99,0.000000,,2013-03-17 10:42:00,
2013-03-17 06:43:00,55.0,19.0,29.95,West,276,6.0,8.0,23,-99.99,,,-99.99,0.000000,,2013-03-17 12:43:00,
2013-03-17 06:52:00,55.0,19.0,29.95,West,276,6.0,8.0,23,-99.99,,,-99.99,0.000000,,2013-03-17 12:52:00,
2013-03-17 07:02:00,55.0,19.0,29.95,WSW,255,3.0,7.0,24,-99.99,,,-99.99,0.000000,,2013-03-17 13:02:00,
2013-03-17 07:12:00,53.0,19.0,29.96,NNW,338,3.0,8.0,25,-99.99,,,-99.99,0.000000,,2013-03-17 13:12:00,
2013-03-17 07:22:00,53.0,19.0,29.96,NNW,338,3.0,8.0,25,-99.99,,,-99.99,0.000000,,2013-03-17 13:22:00,
2013-03-17 07:32:00,54.0,19.0,29.96,NW,325,5.0,8.0,24,-99.99,,,-99.99,0.000000,,2013-03-17 13:32:00,
2013-03-17 07:42:00,52.0,19.0,29.96,NW,317,7.0,10.0,26,-99.99,,,-99.99,2.090000,,2013-03-17 13:42:00,
2013-03-17 07:52:00,52.0,19.0,29.96,NW,317,7.0,10.0,26,-99.99,,,-99.99,2.090000,,2013-03-17 13:52:00,
2013-03-17 08:02:00,53.0,20.0,29.96,NW,323,7.0,9.0,27,-99.99,,,-99.99,9.760000,,2013-03-17 14:02:00,
2013-03-17 08:12:00,55.0,20.0,29.96,WNW,301,7.0,10.0,24,-99.99,,,-99.99,30.680000,,2013-03-17 14:12:00,
2013-03-17 08:22:00,55.0,20.0,29.96,WNW,301,7.0,10.0,24,-99.99,,,-99.99,30.680000,,2013-03-17 14:22:00,
2013-03-17 08:32:00,59.0,18.0,29.96,WNW,285,8.0,16.0,19,-99.99,,,-99.99,84.379997,,2013-03-17 14:32:00,
2013-03-17 08:42:00,61.0,17.0,29.96,West,275,11.0,18.0,18,-99.99,,,-99.99,141.559998,,2013-03-17 14:42:00,
2013-03-17 08:53:00,61.0,17.0,29.96,West,275,11.0,18.0,18,-99.99,,,-99.99,141.559998,,2013-03-17 14:53:00,
2013-03-17 09:02:00,61.0,18.0,29.96,West,278,12.0,21.0,18,-99.99,,,-99.99,193.160004,,2013-03-17 15:02:00,
2013-03-17 09:12:00,61.0,18.0,29.96,WNW,284,14.0,23.0,18,-99.99,,,-99.99,251.039993,,2013-03-17 15:12:00,
2013-03-17 09:23:00,61.0,18.0,29.96,WNW,284,14.0,23.0,18,-99.99,,,-99.99,251.039993,,2013-03-17 15:23:00,
2013-03-17 09:33:00,62.0,17.0,29.97,West,281,13.0,22.0,17,-99.99,,,-99.99,308.920013,,2013-03-17 15:33:00,
2013-03-17 09:42:00,62.0,17.0,29.97,WNW,282,15.0,24.0,17,-99.99,,,-99.99,364.709991,,2013-03-17 15:42:00,
2013-03-17 09:53:00,62.0,17.0,29.97,WNW,282,15.0,24.0,17,-99.99,,,-99.99,364.709991,,2013-03-17 15:53:00,
2013-03-17 10:03:00,62.0,17.0,29.97,WNW,282,15.0,24.0,17,-99.99,,,-99.99,364.709991,,2013-03-17 16:03:00,
2013-03-17 10:12:00,63.0,17.0,29.97,West,278,14.0,21.0,17,-99.99,,,-99.99,476.279999,,2013-03-17 16:12:00,
2013-03-17 10:23:00,63.0,17.0,29.97,West,278,14.0,21.0,17,-99.99,,,-99.99,476.279999,,2013-03-17 16:23:00,
2013-03-17 10:33:00,63.0,17.0,29.97,WNW,285,15.0,25.0,17,-99.99,,,-99.99,529.969971,,2013-03-17 16:33:00,
2013-03-17 10:42:00,63.0,18.0,29.97,WNW,282,17.0,28.0,17,-99.99,,,-99.99,580.880005,,2013-03-17 16:42:00,
2013-03-17 10:52:00,63.0,18.0,29.97,WNW,282,17.0,28.0,17,-99.99,,,-99.99,580.880005,,2013-03-17 16:52:00,
2013-03-17 11:02:00,63.0,18.0,29.97,West,281,15.0,24.0,17,-99.99,,,-99.99,626.210022,,2013-03-17 17:02:00,
2013-03-17 11:12:00,64.0,18.0,29.97,West,271,15.0,23.0,16,-99.99,,,-99.99,672.229980,,2013-03-17 17:12:00,
2013-03-17 11:22:00,64.0,18.0,29.97,West,271,15.0,23.0,16,-99.99,,,-99.99,672.229980,,2013-03-17 17:22:00,
2013-03-17 11:33:00,64.0,18.0,29.97,WNW,287,14.0,22.0,16,-99.99,,,-99.99,715.460022,,2013-03-17 17:33:00,
2013-03-17 11:42:00,64.0,18.0,29.97,West,272,15.0,25.0,16,-99.99,,,-99.99,755.210022,,2013-03-17 17:42:00,
2013-03-17 11:53:00,64.0,18.0,29.97,West,272,15.0,25.0,16,-99.99,,,-99.99,755.210022,,2013-03-17 17:53:00,
2013-03-17 12:02:00,65.0,18.0,29.97,West,269,16.0,25.0,16,-99.99,,,-99.99,788.679993,,2013-03-17 18:02:00,
2013-03-17 12:12:00,64.0,19.0,29.97,West,274,16.0,24.0,17,-99.99,,,-99.99,820.059998,,2013-03-17 18:12:00,
2013-03-17 12:22:00,64.0,19.0,29.97,West,274,16.0,24.0,17,-99.99,,,-99.99,820.059998,,2013-03-17 18:22:00,
2013-03-17 12:32:00,66.0,19.0,29.97,West,264,10.0,17.0,16,-99.99,,,-99.99,847.960022,,2013-03-17 18:32:00,
2013-03-17 12:42:00,67.0,19.0,29.95,WNW,283,13.0,27.0,15,-99.99,,,-99.99,867.479980,,2013-03-17 18:42:00,
2013-03-17 12:52:00,67.0,19.0,29.95,WNW,283,13.0,27.0,15,-99.99,,,-99.99,867.479980,,2013-03-17 18:52:00,
2013-03-17 13:02:00,67.0,19.0,29.95,WNW,283,13.0,27.0,15,-99.99,,,-99.99,867.479980,,2013-03-17 19:02:00,
2013-03-17 13:12:00,68.0,18.0,29.94,West,266,18.0,31.0,14,-99.99,,,-99.99,908.630005,,2013-03-17 19:12:00,
2013-03-17 13:22:00,68.0,18.0,29.94,West,266,18.0,31.0,14,-99.99,,,-99.99,908.630005,,2013-03-17 19:22:00,
2013-03-17 13:33:00,69.0,18.0,29.93,West,270,19.0,34.0,14,-99.99,,,-99.99,802.630005,,2013-03-17 19:33:00,
2013-03-17 13:42:00,68.0,17.0,29.92,West,264,21.0,34.0,14,-99.99,,,-99.99,918.390015,,2013-03-17 19:42:00,
2013-03-17 13:53:00,68.0,17.0,29.92,West,264,21.0,34.0,14,-99.99,,,-99.99,918.390015,,2013-03-17 19:53:00,
2013-03-17 14:02:00,69.0,17.0,29.92,West,273,17.0,41.0,13,-99.99,,,-99.99,930.940002,,2013-03-17 20:02:00,
2013-03-17 14:12:00,69.0,16.0,29.90,West,280,18.0,37.0,12,-99.99,,,-99.99,905.840027,,2013-03-17 20:12:00,
2013-03-17 14:22:00,69.0,16.0,29.90,West,280,18.0,37.0,12,-99.99,,,-99.99,905.840027,,2013-03-17 20:22:00,
2013-03-17 14:32:00,69.0,16.0,29.90,West,280,18.0,37.0,12,-99.99,,,-99.99,905.840027,,2013-03-17 20:32:00,
2013-03-17 14:42:00,70.0,15.0,29.88,West,272,18.0,33.0,12,-99.99,,,-99.99,908.630005,,2013-03-17 20:42:00,
2013-03-17 14:52:00,70.0,15.0,29.88,West,272,18.0,33.0,12,-99.99,,,-99.99,908.630005,,2013-03-17 20:52:00,
2013-03-17 15:03:00,71.0,16.0,29.87,West,275,18.0,34.0,12,-99.99,,,-99.99,844.469971,,2013-03-17 21:03:00,
2013-03-17 15:12:00,72.0,15.0,29.85,West,275,21.0,46.0,11,-99.99,,,-99.99,727.320007,,2013-03-17 21:12:00,
2013-03-17 15:22:00,72.0,15.0,29.85,West,275,21.0,46.0,11,-99.99,,,-99.99,727.320007,,2013-03-17 21:22:00,
2013-03-17 15:33:00,71.0,11.0,29.85,NW,305,22.0,37.0,10,-99.99,,,-99.99,674.320007,,2013-03-17 21:33:00,
2013-03-17 15:43:00,72.0,13.0,29.85,WNW,290,23.0,38.0,10,-99.99,,,-99.99,806.119995,,2013-03-17 21:43:00,
2013-03-17 15:52:00,72.0,13.0,29.85,WNW,290,23.0,38.0,10,-99.99,,,-99.99,806.119995,,2013-03-17 21:52:00,
2013-03-17 16:03:00,71.0,12.0,29.85,WNW,289,22.0,39.0,10,-99.99,,,-99.99,718.250000,,2013-03-17 22:03:00,
2013-03-17 16:12:00,71.0,13.0,29.84,West,281,20.0,42.0,10,-99.99,,,-99.99,755.909973,,2013-03-17 22:12:00,
2013-03-17 16:23:00,71.0,13.0,29.84,West,281,20.0,42.0,10,-99.99,,,-99.99,755.909973,,2013-03-17 22:23:00,
2013-03-17 16:33:00,71.0,11.0,29.85,WNW,296,26.0,48.0,9,-99.99,,,-99.99,599.010010,,2013-03-17 22:33:00,
2013-03-17 16:42:00,71.0,12.0,29.85,WNW,302,26.0,46.0,10,-99.99,,,-99.99,663.859985,,2013-03-17 22:42:00,
2013-03-17 16:53:00,71.0,12.0,29.85,WNW,302,26.0,46.0,10,-99.99,,,-99.99,663.859985,,2013-03-17 22:53:00,
2013-03-17 17:02:00,71.0,11.0,29.85,WNW,299,24.0,41.0,9,-99.99,,,-99.99,624.109985,,2013-03-17 23:02:00,
2013-03-17 17:12:00,71.0,11.0,29.85,WNW,297,23.0,41.0,9,-99.99,,,-99.99,549.500000,,2013-03-17 23:12:00,
2013-03-17 17:22:00,71.0,11.0,29.85,WNW,297,23.0,41.0,9,-99.99,,,-99.99,549.500000,,2013-03-17 23:22:00,
2013-03-17 17:33:00,71.0,11.0,29.85,WNW,287,22.0,42.0,9,-99.99,,,-99.99,466.519989,,2013-03-17 23:33:00,
2013-03-17 17:42:00,70.0,12.0,29.85,WNW,300,23.0,37.0,10,-99.99,,,-99.99,453.959991,,2013-03-17 23:42:00,
2013-03-17 17:53:00,70.0,12.0,29.85,WNW,300,23.0,37.0,10,-99.99,,,-99.99,453.959991,,2013-03-17 23:53:00,
2013-03-17 18:03:00,70.0,11.0,29.85,WNW,299,24.0,41.0,10,-99.99,,,-99.99,398.869995,,2013-03-18 00:03:00,
2013-03-17 18:12:00,70.0,11.0,29.85,WNW,288,22.0,43.0,9,-99.99,,,-99.99,324.260010,,2013-03-18 00:12:00,
2013-03-17 18:22:00,70.0,11.0,29.85,WNW,288,22.0,43.0,9,-99.99,,,-99.99,324.260010,,2013-03-18 00:22:00,
2013-03-17 18:33:00,70.0,11.0,29.85,WNW,300,24.0,43.0,9,-99.99,,,-99.99,274.049988,,2013-03-18 00:33:00,
2013-03-17 18:42:00,70.0,11.0,29.85,WNW,282,23.0,38.0,10,-99.99,,,-99.99,218.960007,,2013-03-18 00:42:00,
2013-03-17 18:53:00,70.0,11.0,29.85,WNW,282,23.0,38.0,10,-99.99,,,-99.99,218.960007,,2013-03-18 00:53:00,
2013-03-17 19:02:00,69.0,11.0,29.86,WNW,284,22.0,43.0,10,-99.99,,,-99.99,160.389999,,2013-03-18 01:02:00,
2013-03-17 19:12:00,69.0,11.0,29.86,West,277,20.0,39.0,10,-99.99,,,-99.99,103.209999,,2013-03-18 01:12:00,
2013-03-17 19:22:00,69.0,11.0,29.86,West,277,20.0,39.0,10,-99.99,,,-99.99,103.209999,,2013-03-18 01:22:00,
2013-03-17 19:32:00,68.0,10.0,29.87,WNW,282,20.0,37.0,10,-99.99,,,-99.99,23.010000,,2013-03-18 01:32:00,
2013-03-17 19:42:00,68.0,9.0,29.87,WNW,286,16.0,26.0,9,-99.99,,,-99.99,11.160000,,2013-03-18 01:42:00,
2013-03-17 19:52:00,68.0,9.0,29.87,WNW,286,16.0,26.0,9,-99.99,,,-99.99,11.160000,,2013-03-18 01:52:00,
2013-03-17 20:02:00,68.0,8.0,29.88,WNW,282,19.0,37.0,9,-99.99,,,-99.99,2.090000,,2013-03-18 02:02:00,
2013-03-17 20:12:00,67.0,7.0,29.88,WNW,289,17.0,30.0,9,-99.99,,,-99.99,0.000000,,2013-03-18 02:12:00,
2013-03-17 20:22:00,67.0,7.0,29.88,WNW,289,17.0,30.0,9,-99.99,,,-99.99,0.000000,,2013-03-18 02:22:00,
2013-03-17 20:32:00,67.0,8.0,29.89,WNW,288,19.0,36.0,9,-99.99,,,-99.99,0.000000,,2013-03-18 02:32:00,
2013-03-17 20:42:00,66.0,8.0,29.90,WNW,283,18.0,32.0,9,-99.99,,,-99.99,0.000000,,2013-03-18 02:42:00,
2013-03-17 20:52:00,66.0,8.0,29.90,WNW,283,18.0,32.0,9,-99.99,,,-99.99,0.000000,,2013-03-18 02:52:00,
2013-03-17 21:02:00,66.0,8.0,29.90,WNW,292,17.0,29.0,9,-99.99,,,-99.99,0.000000,,2013-03-18 03:02:00,
2013-03-17 21:11:00,66.0,7.0,29.91,WNW,291,19.0,35.0,9,-99.99,,,-99.99,0.000000,,2013-03-18 03:11:00,
2013-03-17 21:22:00,66.0,7.0,29.91,WNW,291,19.0,35.0,9,-99.99,,,-99.99,0.000000,,2013-03-18 03:22:00,
2013-03-17 21:33:00,65.0,6.0,29.91,WNW,292,19.0,34.0,9,-99.99,,,-99.99,0.000000,,2013-03-18 03:33:00,
2013-03-17 21:42:00,65.0,6.0,29.91,WNW,292,19.0,34.0,9,-99.99,,,-99.99,0.000000,,2013-03-18 03:42:00,
2013-03-17 21:53:00,65.0,6.0,29.91,WNW,292,19.0,34.0,9,-99.99,,,-99.99,0.000000,,2013-03-18 03:53:00,
2013-03-17 22:03:00,65.0,6.0,29.93,WNW,295,18.0,32.0,9,-99.99,,,-99.99,0.000000,,2013-03-18 04:03:00,
2013-03-17 22:13:00,64.0,6.0,29.93,WNW,301,18.0,28.0,9,-99.99,,,-99.99,0.000000,,2013-03-18 04:13:00,
2013-03-17 22:23:00,64.0,6.0,29.93,WNW,301,18.0,28.0,9,-99.99,,,-99.99,0.000000,,2013-03-18 04:23:00,
2013-03-17 22:33:00,64.0,6.0,29.94,WNW,302,19.0,32.0,9,-99.99,,,-99.99,0.000000,,2013-03-18 04:33:00,
2013-03-17 22:42:00,64.0,6.0,29.94,WNW,298,17.0,28.0,9,-99.99,,,-99.99,0.000000,,2013-03-18 04:42:00,
2013-03-17 22:53:00,64.0,6.0,29.94,WNW,298,17.0,28.0,9,-99.99,,,-99.99,0.000000,,2013-03-18 04:53:00,
2013-03-17 23:02:00,63.0,6.0,29.94,WNW,297,18.0,31.0,9,-99.99,,,-99.99,0.000000,,2013-03-18 05:02:00,
2013-03-17 23:12:00,63.0,6.0,29.95,WNW,294,20.0,32.0,10,-99.99,,,-99.99,0.000000,,2013-03-18 05:12:00,
2013-03-17 23:22:00,63.0,6.0,29.95,WNW,294,20.0,32.0,10,-99.99,,,-99.99,0.000000,,2013-03-18 05:22:00,
2013-03-17 23:32:00,62.0,6.0,29.96,WNW,291,17.0,28.0,10,-99.99,,,-99.99,0.000000,,2013-03-18 05:32:00,
2013-03-17 23:43:00,62.0,6.0,29.96,WNW,294,19.0,34.0,10,-99.99,,,-99.99,0.000000,,2013-03-18 05:43:00,
2013-03-17 23:52:00,62.0,6.0,29.96,WNW,294,19.0,34.0,10,-99.99,,,-99.99,0.000000,,2013-03-18 05:52:00,